Location: Launay
(47.2429°N, 1.5727°E)
Time: 07:09:01
(UTC+00:00)

Cosmos 2341 Rocket - Pass Details

Date: 19 May 2025
Orbit: 966 x 1004 km, 82.9° (Epoch: 18 June)

Event Time Altitude Azimuth Distance (km) Brightness Sun altitude
Rises 21:38:04 0° 348° (NNW) 3,694 8.4 -16.5°
Reaches altitude 10° 21:40:37 10° 346° (NNW) 2,737 7.5 -16.7°
Maximum altitude 21:46:47 64° 267° (W) 1,071 4.3 -17.3°
Enters shadow 21:51:18 19° 190° (S) 2,129 5.3 -17.7°
